Wind_Speed
107 108 112 114 114 117 120 129 126 117 124 125 116 114 113 105 111 105 103 97 96 98 94 93 89 88 86 85 84 82 79 77 77 71 65 64 63 63 65 65 64 62 58
112 112 114 119 118 120 122 124 127 127 120 116 116 111 105 106 108 98 99 91 94 91 89 86 85 82 80 79 80 78 76 73 69 64 59 57 58 58 59 59 62 59 57
108 114 114 113 117 126 126 121 119 117 110 114 110 108 109 103 101 89 83 80 78 76 74 74 75 75 73 69 73 71 69 65 63 56 54 54 55 57 55 55 60 58 54
119 119 118 122 121 115 121 115 115 117 112 113 107 98 92 88 76 77 72 67 65 63 59 58 61 55 61 58 64 62 60 59 55 49 48 50 53 58 57 50 50 51 52
120 127 129 125 114 117 111 116 114 116 98 87 84 78 75 70 66 61 58 55 52 55 54 56 56 59 60 61 63 62 58 51 46 45 42 45 51 59 56 58 52 52 49
132 128 129 117 114 115 107 103 82 81 72 69 71 63 63 62 59 59 57 61 59 63 61 62 58 54 52 55 59 62 58 50 45 46 47 44 57 53 58 57 58 51 51
130 127 117 109 102 86 77 67 64 59 54 55 53 53 53 54 52 50 50 47 47 47 51 54 55 58 56 55 54 53 51 46 44 45 48 51 52 58 59 57 60 55 56
109 109 92 78 66 65 58 51 47 43 39 38 39 39 41 42 41 40 37 35 35 35 37 38 42 45 47 50 48 47 49 45 45 44 50 56 56 57 56 61 57 59 58
87 72 62 55 54 50 45 40 37 36 31 30 30 30 29 29 30 30 30 29 28 27 29 30 31 35 37 37 38 41 46 47 46 46 48 58 57 57 53 54 56 54 59
55 49 42 40 35 30 25 22 20 21 21 18 16 17 15 13 12 14 17 21 25 27 28 29 30 32 32 33 34 37 41 44 48 48 55 59 57 57 57 56 53 55 55
30 22 16 12 11 9 8 8 7 10 13 6 7 11 9 8 12 10 10 12 11 13 20 25 28 30 32 32 33 33 34 42 47 48 49 62 59 63 60 60 54 59 61
7 7 6 10 9 12 14 14 13 14 17 18 20 19 18 20 21 22 21 22 19 15 13 10 14 23 28 31 32 35 35 39 42 44 45 55 62 63 57 62 57 58 58
8 10 13 15 17 18 17 15 14 14 16 19 21 20 22 21 23 23 24 28 25 26 24 20 18 14 12 17 28 31 33 35 41 43 45 48 62 63 63 63 67 57 57
17 19 23 25 27 25 24 23 22 20 21 24 26 28 27 26 28 27 27 28 29 27 26 24 24 22 23 21 17 20 28 35 39 44 47 49 54 67 66 66 69 74 64
18 19 22 25 26 24 26 28 27 24 25 27 30 31 30 31 30 32 32 33 31 31 30 28 25 24 23 23 23 21 21 24 30 40 48 53 55 61 71 68 71 66 69
15 17 20 21 21 23 25 26 29 29 28 28 28 29 29 28 30 30 33 35 34 34 36 34 34 33 30 27 27 27 28 26 26 28 35 47 57 64 66 72 71 77 70
19 20 20 22 26 30 29 28 28 28 29 30 32 33 34 34 34 35 37 39 39 40 39 38 39 39 39 37 38 37 35 36 37 35 33 35 44 58 67 73 78 84 80
21 23 21 23 27 31 30 31 30 33 36 37 40 44 43 43 44 45 45 42 42 42 43 44 43 43 45 45 48 48 50 49 47 45 45 46 42 42 55 70 79 85 91
24 28 29 33 36 40 41 40 40 43 46 48 49 50 48 48 49 51 50 52 52 51 52 52 52 53 54 54 54 56 56 54 53 52 52 53 52 53 52 50 67 78 88
40 41 44 46 45 46 48 48 49 50 51 54 55 54 55 54 56 57 57 57 59 60 61 63 64 63 63 63 64 66 65 65 64 64 63 62 60 58 58 61 64 67 79
45 48 47 48 48 49 51 52 54 57 58 59 60 60 62 63 65 65 66 68 69 69 70 71 71 72 74 75 75 77 76 75 74 73 73 71 69 67 65 63 63 70 73
48 48 49 49 51 54 55 57 56 57 58 61 65 66 66 68 68 69 71 74 77 79 81 81 81 81 82 84 83 84 83 83 83 83 82 80 78 77 76 75 76 74 73
48 50 52 54 57 58 59 59 62 64 64 66 70 73 76 78 79 80 82 84 87 90 91 93 93 92 93 93 94 94 92 92 94 94 92 90 88 87 86 86 85 82 81
52 53 55 58 60 63 65 67 67 69 72 76 78 80 83 85 88 92 95 97 98 100 100 98 99 98 98 100 100 104 105 101 100 99 97 97 95 93 92 92 92 90 88
52 55 58 60 62 66 70 73 75 76 80 83 87 89 92 94 96 97 102 104 106 108 107 108 107 105 104 103 103 103 102 103 103 98 93 99 99 97 96 95 94 94 93
57 60 63 67 69 73 79 82 83 85 87 89 90 93 96 97 101 105 108 107 107 107 107 108 104 99 93 93 95 95 93 95 98 99 94 95 100 102 103 100 100 98 98
Wind_Direction
293 292 292 292 294 295 293 294 298 296 298 295 293 290 289 290 290 289 285 285 281 281 281 279 278 277 276 275 275 275 271 271 271 267 266 265 263 257 258 254 251 250 242
295 294 293 292 291 295 296 296 296 294 294 292 288 288 287 287 285 285 284 285 283 281 280 278 278 278 275 273 272 271 271 270 268 264 260 258 258 255 252 252 249 244 243
291 290 294 296 291 291 297 296 292 291 288 289 285 286 285 283 286 287 287 286 283 281 281 278 276 273 272 271 269 266 265 264 261 257 254 247 248 250 246 248 248 245 241
294 299 296 296 295 292 293 289 291 289 289 288 285 284 283 284 282 282 283 282 278 279 277 275 275 270 271 266 267 266 260 258 254 252 247 248 249 245 245 232 233 234 233
296 297 299 296 291 292 293 289 289 289 288 288 287 285 283 283 284 284 283 283 280 274 272 271 271 270 268 265 264 263 261 253 248 246 246 249 249 245 246 231 224 227 223
299 296 293 293 288 291 288 293 290 286 283 284 283 285 283 284 283 281 280 278 270 269 269 269 269 268 265 263 262 259 257 249 243 243 244 240 240 244 236 238 229 217 216
291 293 291 290 290 293 289 290 289 286 287 285 287 288 289 290 287 288 284 281 278 275 272 269 264 265 263 259 256 257 252 246 240 240 242 242 235 235 226 221 227 218 213
292 294 294 290 292 290 290 286 285 290 291 291 292 294 291 293 293 291 292 291 289 282 275 271 268 266 266 261 259 255 247 247 240 238 240 229 226 227 222 220 223 216 212
293 292 291 294 295 295 295 291 293 294 294 294 296 299 300 301 300 299 293 290 289 288 286 280 276 272 269 266 262 260 251 246 239 236 230 223 228 232 224 220 219 217 217
294 295 297 299 298 305 309 313 313 310 308 312 313 313 317 330 341 318 305 302 291 283 279 277 275 273 269 266 263 259 249 247 242 241 227 226 233 226 221 216 224 225 224
306 315 327 351 13 8 5 27 29 35 46 40 14 12 9 6 23 18 27 9 352 318 289 275 276 277 276 273 270 264 262 253 248 248 238 227 234 231 225 221 223 227 232
345 25 34 45 48 46 29 22 9 7 10 12 17 20 15 12 10 8 10 11 13 7 358 332 298 280 275 272 270 265 264 258 256 256 245 237 230 232 233 227 221 223 229
24 14 5 11 7 7 7 14 16 9 11 6 359 357 351 349 348 345 344 339 337 341 345 349 351 333 306 294 274 269 262 262 257 253 250 246 235 233 239 242 235 227 233
2 2 5 5 4 2 2 0 357 349 344 342 347 345 339 332 331 331 332 331 329 327 320 319 319 326 331 328 314 291 277 268 259 255 254 248 244 237 232 238 246 239 239
11 6 359 358 355 350 343 339 338 337 335 335 333 334 333 326 323 322 323 324 318 315 313 310 309 307 306 306 307 305 300 285 279 265 254 251 250 244 236 231 231 243 241
360 355 352 352 346 342 337 331 328 327 328 329 330 326 327 324 320 318 318 318 316 314 311 305 303 300 296 295 292 289 287 286 284 281 275 263 251 242 244 235 233 234 242
336 336 336 338 337 334 334 329 328 325 324 324 324 323 321 318 316 314 312 311 309 307 306 303 297 292 292 289 288 284 283 285 282 277 274 274 267 255 250 244 242 236 235
311 320 322 325 330 329 325 321 317 317 316 316 317 316 315 312 311 308 304 303 300 297 296 294 293 292 289 286 283 281 281 279 278 275 273 271 268 266 257 253 249 243 239
306 314 321 324 326 326 324 320 318 316 314 313 314 313 311 308 305 305 302 298 297 296 294 292 291 289 287 285 284 283 281 277 273 273 273 270 266 264 258 258 255 252 248
316 317 319 321 320 318 318 315 314 314 314 313 312 311 309 306 306 305 302 299 298 296 293 290 288 288 286 284 284 284 283 280 276 274 272 271 269 267 262 256 253 254 253
312 315 315 312 313 312 310 309 311 312 311 309 309 308 306 304 302 301 299 298 296 295 293 290 287 286 285 284 284 283 282 282 279 277 275 273 270 265 264 263 259 252 251
306 308 307 307 307 309 309 310 311 311 311 310 311 309 307 305 303 301 299 298 297 295 293 290 288 286 284 282 281 280 280 280 278 277 277 274 272 270 268 266 265 262 253
304 304 305 309 311 311 313 316 317 315 313 311 309 308 307 305 303 301 299 297 295 294 293 292 290 289 286 284 282 281 278 277 277 277 276 274 272 271 268 267 266 265 259
305 309 310 311 315 317 317 315 313 310 310 310 308 307 305 302 300 300 299 298 296 295 295 293 291 290 287 284 282 281 279 277 275 274 275 273 271 268 267 265 263 262 259
308 308 311 313 313 313 312 311 311 311 310 308 306 306 305 304 305 305 305 302 299 298 295 293 293 290 287 284 281 279 277 276 275 273 270 271 271 269 266 263 260 259 257
303 304 308 310 309 309 308 308 308 307 306 308 308 306 304 303 304 303 302 301 297 294 292 292 290 289 287 282 280 277 274 272 273 272 267 266 265 266 266 264 260 257 255
Height
10830 10822 10816 10810 10805 10798 10788 10783 10780 10773 10763 10759 10752 10750 10740 10741 10740 10744 10741 10737 10733 10731 10728 10727 10726 10726 10727 10726 10723 10725 10727 10734 10737 10739 10742 10742 10747 10752 10758 10762 10767 10777 10785
10814 10807 10801 10795 10786 10778 10767 10760 10757 10753 10744 10737 10732 10725 10723 10719 10718 10720 10715 10710 10709 10707 10707 10707 10706 10705 10708 10706 10706 10708 10710 10718 10719 10724 10728 10731 10733 10736 10742 10748 10753 10761 10769
10799 10791 10783 10777 10771 10762 10750 10741 10735 10731 10722 10716 10710 10702 10699 10699 10695 10694 10691 10688 10687 10686 10685 10685 10684 10685 10691 10687 10689 10690 10697 10705 10706 10706 10715 10717 10720 10724 10730 10734 10741 10749 10754
10781 10771 10764 10756 10746 10738 10727 10719 10715 10710 10698 10692 10691 10686 10681 10676 10678 10677 10674 10676 10672 10671 10670 10667 10667 10669 10673 10672 10671 10677 10683 10687 10691 10694 10699 10704 10709 10711 10719 10724 10729 10736 10743
10761 10754 10744 10734 10722 10713 10704 10699 10690 10685 10680 10672 10670 10668 10664 10662 10661 10661 10661 10664 10660 10653 10656 10655 10655 10657 10657 10657 10660 10663 10669 10675 10679 10682 10689 10692 10698 10701 10706 10711 10718 10724 10730
10739 10731 10720 10711 10701 10693 10682 10679 10672 10666 10664 10656 10654 10652 10653 10652 10650 10650 10650 10651 10647 10645 10645 10644 10643 10644 10645 10646 10647 10652 10655 10660 10667 10672 10677 10681 10686 10691 10696 10701 10709 10713 10719
10718 10707 10698 10691 10683 10675 10671 10665 10660 10654 10649 10647 10645 10643 10641 10639 10637 10636 10634 10636 10634 10633 10632 10630 10632 10633 10634 10636 10637 10642 10645 10649 10657 10663 10667 10671 10678 10683 10687 10691 10697 10701 10708
10695 10687 10679 10672 10666 10665 10658 10653 10648 10646 10641 10639 10636 10635 10632 10630 10627 10626 10625 10625 10625 10625 10623 10622 10622 10623 10625 10628 10629 10632 10636 10641 10647 10653 10659 10664 10668 10670 10675 10683 10689 10692 10697
10680 10672 10666 10659 10656 10656 10651 10646 10643 10641 10637 10634 10631 10629 10627 10625 10622 10620 10619 10618 10618 10617 10616 10615 10614 10614 10616 10618 10621 10624 10629 10632 10637 10643 10647 10653 10658 10663 10668 10674 10681 10686 10691
10669 10662 10655 10653 10650 10647 10644 10641 10638 10635 10632 10630 10629 10627 10624 10622 10620 10617 10616 10615 10614 10613 10612 10611 10609 10608 10609 10610 10613 10616 10620 10624 10629 10635 10639 10644 10649 10654 10659 10666 10674 10678 10682
10661 10657 10653 10650 10648 10647 10646 10642 10639 10636 10634 10631 10629 10627 10624 10621 10619 10617 10615 10613 10610 10608 10607 10605 10605 10605 10605 10607 10609 10611 10613 10615 10620 10624 10629 10634 10639 10644 10651 10656 10661 10668 10672
10660 10657 10655 10652 10651 10649 10645 10642 10639 10636 10634 10631 10628 10625 10622 10621 10618 10615 10613 10611 10609 10606 10603 10601 10600 10599 10598 10598 10600 10603 10605 10608 10610 10614 10620 10625 10629 10635 10641 10646 10649 10656 10661
10660 10659 10657 10654 10651 10649 10649 10645 10642 10639 10636 10633 10629 10626 10623 10619 10616 10614 10611 10609 10606 10604 10602 10599 10598 10596 10594 10594 10593 10594 10596 10598 10601 10605 10610 10614 10620 10627 10632 10634 10640 10644 10648
10663 10659 10656 10652 10649 10648 10647 10645 10642 10640 10637 10633 10629 10626 10623 10619 10616 10612 10610 10607 10604 10602 10600 10598 10596 10593 10591 10589 10587 10587 10587 10588 10590 10592 10595 10600 10604 10611 10619 10624 10626 10631 10637
10662 10659 10656 10652 10650 10649 10646 10643 10640 10638 10634 10631 10628 10623 10619 10616 10613 10609 10606 10604 10601 10599 10596 10594 10592 10590 10588 10586 10584 10583 10583 10582 10581 10581 10584 10587 10591 10595 10601 10608 10616 10618 10621
10662 10660 10657 10655 10653 10649 10645 10641 10638 10635 10631 10627 10623 10619 10615 10611 10608 10605 10602 10599 10597 10594 10592 10589 10587 10584 10582 10580 10578 10577 10576 10576 10576 10574 10572 10573 10576 10580 10585 10592 10598 10604 10605
10661 10659 10656 10654 10651 10647 10643 10639 10635 10630 10626 10621 10618 10614 10610 10606 10602 10599 10596 10594 10590 10587 10584 10581 10579 10577 10575 10573 10570 10568 10567 10567 10566 10566 10564 10564 10563 10566 10569 10573 10577 10584 10588
10659 10656 10653 10650 10647 10644 10640 10635 10630 10626 10621 10617 10613 10608 10604 10600 10596 10592 10588 10584 10582 10577 10573 10570 10568 10566 10564 10562 10560 10559 10557 10556 10555 10556 10555 10553 10552 10552 10554 10557 10559 10562 10568
10653 10649 10646 10642 10639 10635 10631 10626 10621 10616 10611 10606 10603 10599 10595 10591 10587 10582 10578 10574 10570 10566 10561 10557 10554 10551 10548 10546 10545 10543 10542 10541 10540 10540 10540 10539 10539 10538 10539 10541 10542 10543 10548
10645 10641 10637 10633 10629 10625 10621 10616 10610 10605 10600 10595 10591 10586 10581 10576 10572 10568 10563 10560 10556 10551 10546 10542 10538 10534 10530 10527 10525 10522 10521 10521 10520 10520 10520 10520 10522 10523 10522 10523 10525 10526 10526
10637 10632 10629 10625 10622 10618 10613 10608 10602 10595 10590 10584 10580 10574 10570 10565 10559 10554 10547 10542 10538 10534 10528 10524 10519 10514 10509 10505 10504 10499 10497 10497 10495 10494 10495 10497 10498 10500 10501 10502 10502 10504 10506
10631 10627 10622 10616 10612 10607 10602 10597 10592 10586 10578 10569 10562 10555 10551 10546 10541 10535 10529 10522 10515 10512 10507 10501 10496 10492 10487 10479 10478 10474 10475 10470 10466 10464 10466 10469 10470 10471 10474 10474 10474 10476 10479
10624 10617 10611 10606 10600 10593 10586 10578 10572 10567 10562 10555 10547 10539 10530 10523 10518 10514 10508 10501 10493 10485 10480 10472 10466 10464 10458 10451 10444 10441 10443 10444 10435 10434 10434 10435 10437 10439 10439 10441 10443 10444 10449
10612 10607 10600 10592 10585 10577 10571 10566 10560 10553 10546 10537 10530 10524 10515 10506 10498 10489 10483 10476 10468 10458 10453 10444 10438 10433 10426 10420 10413 10406 10402 10403 10403 10402 10401 10397 10400 10404 10405 10406 10409 10412 10415
10604 10597 10590 10583 10574 10565 10557 10550 10543 10535 10528 10521 10512 10504 10492 10481 10472 10463 10452 10442 10433 10423 10415 10408 10403 10395 10391 10384 10378 10374 10367 10363 10361 10365 10371 10363 10360 10360 10363 10367 10372 10376 10380
10598 10589 10579 10570 10561 10553 10545 10536 10529 10520 10511 10502 10491 10481 10471 10461 10450 10436 10424 10413 10403 10394 10384 10376 10368 10360 10353 10347 10342 10335 10333 10329 10324 10321 10332 10336 10329 10324 10320 10324 10328 10335 10341